This demonstration page uses our WeatherBlox Daily Observations layout. Learn more.

Hourly Observations for January 26, 2018

Temp ( °F °C ) Dew Point ( °F °C ) Humidity (%) Winds ( mph kmh ) Pressure ( in mb ) Visibility ( mi km ) Precip ( " mm )
12:15 am 00:15 Clear 43 6 24 -4.5 47 47 S 18 30 29.8 1009 10 16.0934 0 0
12:35 am 00:35 Clear 42 5.6 24 -4.3 49 49 S 21 33 29.8 1009 10 16.0934 0 0
12:55 am 00:55 Clear 42 5.3 24 -4.3 50 50 S 22 35 29.77 1008 10 16.0934 0 0
1:15 am 01:15 Clear 42 5.7 24 -4.7 48 48 S 21 33 29.77 1008 10 16.0934 0 0
1:35 am 01:35 Clear 42 5.4 24 -4.6 49 49 S 20 31 29.77 1008 10 16.0934 0 0
1:55 am 01:55 Clear 41 5.2 24 -4.3 51 51 S 20 31 29.77 1008 10 16.0934 0 0
2:15 am 02:15 Clear 41 5.1 25 -3.9 53 53 S 18 30 29.77 1008 10 16.0934 0 0
2:35 am 02:35 Clear 40 4.6 26 -3.5 56 56 S 16 26 29.77 1008 10 16.0934 0 0
2:55 am 02:55 Clear 40 4.4 26 -3.2 58 58 S 17 28 29.77 1008 10 16.0934 0 0
3:15 am 03:15 Clear 40 4.3 27 -3 59 59 S 14 22 29.74 1007 10 16.0934 0 0
3:35 am 03:35 Clear 40 4.4 27 -2.8 60 60 S 14 22 29.74 1007 10 16.0934 0 0
3:55 am 03:55 Clear 39 3.9 27 -2.7 62 62 S 13 20 29.77 1008 10 16.0934 0 0
4:15 am 04:15 Clear 38 3.3 27 -2.6 66 66 SSW 9 15 29.8 1009 10 16.0934 0 0
4:35 am 04:35 Clear 37 2.8 28 -2.5 68 68 SSW 10 17 29.77 1008 10 16.0934 0 0
4:55 am 04:55 Clear 36 2.2 27 -2.7 70 70 SSW 9 15 29.77 1008 10 16.0934 0 0
5:15 am 05:15 Clear 35 1.4 27 -2.8 74 74 SSW 8 13 29.77 1008 10 16.0934 0 0
5:35 am 05:35 Clear 35 1.5 27 -3 72 72 S 9 15 29.77 1008 10 16.0934 0 0
5:55 am 05:55 Clear 34 1.1 27 -2.8 76 76 SSW 8 13 29.77 1008 10 16.0934 0 0
6:15 am 06:15 Clear 35 1.4 27 -2.7 74 74 SSW 9 15 29.77 1008 10 16.0934 0 0
6:35 am 06:35 Clear 34 1 27 -2.8 76 76 SSW 7 11 29.77 1008 10 16.0934 0 0
6:55 am 06:55 Clear 32 0.2 26 -3.1 79 79 SW 5 7 29.77 1008 10 16.0934 0 0
7:15 am 07:15 Clear 32 0 26 -3.1 80 80 SW 5 7 29.77 1008 10 16.0934 0 0
7:35 am 07:35 Clear 32 0.1 26 -3.1 79 79 SW 6 9 29.83 1010 10 16.0934 0 0
7:55 am 07:55 Sunny 31 -0.3 26 -3.4 80 80 SW 5 7 29.83 1010 10 16.0934 0 0
8:15 am 08:15 Sunny 31 -0.7 25 -3.7 80 80 SW 5 7 29.83 1010 10 16.0934 0 0
8:35 am 08:35 Sunny 31 -0.3 26 -3.2 81 81 W 3 6 29.83 1010 10 16.0934 0 0
8:55 am 08:55 Sunny 33 0.6 27 -3 77 77 W 7 11 29.8 1009 10 16.0934 0 0
9:15 am 09:15 Sunny 34 1 26 -3.1 74 74 W 7 11 29.83 1010 10 16.0934 0 0
9:35 am 09:35 Sunny 35 1.5 28 -2.3 76 76 WNW 6 9 29.83 1010 10 16.0934 0 0
9:55 am 09:55 Sunny 37 2.8 29 -1.4 74 74 WNW 9 15 29.83 1010 10 16.0934 0 0
10:15 am 10:15 Sunny 40 4.6 30 -1 67 67 WNW 14 22 29.8 1009 10 16.0934 0 0
10:35 am 10:35 Sunny 42 5.8 29 -1.5 60 60 NW 14 22 29.83 1010 10 16.0934 0 0
10:55 am 10:55 Sunny 43 5.9 29 -1.6 59 59 NNW 14 22 29.83 1010 10 16.0934 0 0
11:15 am 11:15 Sunny 44 6.5 29 -1.4 57 57 NW 17 28 29.83 1010 10 16.0934 0 0
11:35 am 11:35 Sunny 43 6 29 -1.6 59 59 NW 13 20 29.83 1010 10 16.0934 0 0
11:55 am 11:55 Sunny 43 6 30 -1.2 60 60 NNW 17 28 29.85 1011 10 16.0934 0 0
12:15 pm 12:15 Sunny 43 6 30 -0.9 62 62 NW 18 30 29.85 1011 10 16.0934 0 0
12:35 pm 12:35 Sunny 43 6.2 31 -0.3 63 63 NW 17 28 29.88 1012 10 16.0934 0 0
12:55 pm 12:55 Sunny 44 6.4 32 0 64 64 NW 20 31 29.91 1013 10 16.0934 0 0
1:15 pm 13:15 Partly Cloudy 45 7 33 0.5 64 64 NNW 20 31 29.91 1013 10 16.0934 0 0
1:35 pm 13:35 Partly Cloudy 44 6.8 33 0.6 65 65 NNW 18 30 29.91 1013 10 16.0934 0 0
1:55 pm 13:55 Partly Cloudy 44 6.5 32 0.2 64 64 N 16 26 29.91 1013 10 16.0934 0 0
2:15 pm 14:15 Partly Cloudy 44 6.5 32 0 64 64 NNW 18 30 29.94 1014 10 16.0934 0 0
2:35 pm 14:35 Partly Cloudy 42 5.8 31 -0.4 65 65 N 15 24 29.94 1014 10 16.0934 0 0
2:55 pm 14:55 Mostly Cloudy 43 6 30 -0.9 62 62 NNW 14 22 29.97 1015 10 16.0934 0 0
3:15 pm 15:15 Mostly Cloudy 43 6.2 29 -1.7 57 57 NW 16 26 29.97 1015 10 16.0934 0 0
3:35 pm 15:35 Partly Cloudy 43 6.3 28 -2 56 56 NNW 16 26 30 1016 10 16.0934 0 0
3:55 pm 15:55 Partly Cloudy 44 6.5 28 -2 55 55 NNW 14 22 30 1016 10 16.0934 0 0
4:15 pm 16:15 Partly Cloudy 42 5.6 28 -2.3 57 57 NW 12 19 30.03 1017 10 16.0934 0 0
4:35 pm 16:35 Mostly Cloudy 41 5.2 30 -1.3 63 63 NW 13 20 30.03 1017 10 16.0934 0 0
4:55 pm 16:55 Cloudy 40 4.5 30 -1 68 68 NW 13 20 30.06 1018 10 16.0934 0 0
5:15 pm 17:15 Cloudy 40 4.3 30 -1.3 67 67 WNW 12 19 30.06 1018 10 16.0934 0 0
5:35 pm 17:35 Cloudy 39 4 30 -1.1 70 70 WNW 10 17 30.09 1019 10 16.0934 0 0
5:55 pm 17:55 Cloudy 38 3.6 30 -1 72 72 WNW 12 19 30.09 1019 10 16.0934 0 0
6:15 pm 18:15 Cloudy 38 3.6 30 -1 72 72 W 9 15 30.12 1020 10 16.0934 0 0
6:35 pm 18:35 Cloudy 37 3 30 -1.1 75 75 W 10 17 30.15 1021 10 16.0934 0 0
6:55 pm 18:55 Cloudy 38 3.2 30 -1 74 74 W 9 15 30.18 1022 10 16.0934 0 0
7:15 pm 19:15 Mostly Cloudy 37 3 30 -1.1 75 75 W 9 15 30.18 1022 10 16.0934 0 0
7:35 pm 19:35 Partly Cloudy 37 3 30 -1.1 75 75 W 9 15 30.18 1022 10 16.0934 0 0
7:55 pm 19:55 Clear 36 2.4 30 -1.1 78 78 W 8 13 30.21 1023 10 16.0934 0 0
8:15 pm 20:15 Clear 35 1.8 30 -1.2 81 81 W 8 13 30.21 1023 10 16.0934 0 0
8:35 pm 20:35 Clear 34 1.3 30 -1.3 83 83 W 8 13 30.21 1023 10 16.0934 0 0
8:55 pm 20:55 Clear 34 1.2 29 -1.4 83 83 W 9 15 30.21 1023 10 16.0934 0 0
9:15 pm 21:15 Clear 33 0.4 29 -1.9 85 85 W 8 13 30.24 1024 10 16.0934 0 0
9:35 pm 21:35 Clear 32 -0.1 28 -2.3 85 85 W 7 11 30.24 1024 10 16.0934 0 0
9:55 pm 21:55 Clear 31 -0.7 27 -2.7 87 87 W 7 11 30.24 1024 10 16.0934 0 0
10:15 pm 22:15 Clear 31 -0.8 27 -2.8 86 86 W 8 13 30.24 1024 10 16.0934 0 0
10:35 pm 22:35 Clear 31 -0.5 27 -2.8 85 85 W 8 13 30.24 1024 10 16.0934 0 0
10:55 pm 22:55 Clear 30 -0.9 26 -3.2 85 85 W 7 11 30.24 1024 10 16.0934 0 0
11:15 pm 23:15 Clear 30 -1.2 25 -3.7 83 83 W 7 11 30.24 1024 10 16.0934 0 0
11:35 pm 23:35 Clear 30 -1.1 26 -3.6 83 83 W 9 15 30.24 1024 10 16.0934 0 0
11:55 pm 23:55 Clear 32 -0.2 26 -3.5 79 79 W 9 15 30.27 1025 10 16.0934 0 0

Powered by AerisWeather